Location: Bastelaar
(51.0950°N, 3.8602°E)
Time: 02:23:49
(UTC+00:00)

Cosmos 1943 Rocket - Pass Details

Date: 18 November 2025
Orbit: 812 x 841 km, 71.0° (Epoch: 13 December)

Event Time Altitude Azimuth Distance (km) Brightness Sun altitude
Rises 19:07:09 0° 247° (WSW) 3,374 6.2 -30.2°
Reaches altitude 10° 19:09:57 10° 260° (W) 2,439 5.4 -30.6°
Maximum altitude 19:14:41 28° 318° (NW) 1,525 3.9 -31.4°
Enters shadow 19:16:53 22° 353° (N) 1,761 3.9 -31.7°
